Tracking 27086 objects as of 22-Mar-2023
HD Live streaming from Space Station
objects crossing your sky now

STARLINK-3961

Track STARLINK-3961 now!
10-day predictions
STARLINK-3961 is classified as:


NORAD ID: 52637
Int'l Code: 2022-052AR
Perigee: 546.1 km
Apogee: 547.8 km
Inclination: 53.2 °
Period: 95.4 minutes
Semi major axis: 6917 km
RCS: Unknown
Launch date: May 14, 2022
Source: United States (US)
Launch site: AIR FORCE EASTERN TEST RANGE (AFETR)
Your satellite tracking list
Your tracking list is empty




NASA's NSSDC Master Catalog

Two Line Element Set (TLE):
1 52637U 22052AR  23081.18720264 -.00000068  00000-0  13819-4 0  9999
2 52637  53.2159  83.1511 0001244  94.6067 265.5067 15.08830284 47935
Source of the keplerian elements: AFSPC